Other Surface Observations
Issued by NWS Charleston, SC

Home | Current Version | Previous Version | Text Only | Print | Product List | Glossary On
Versions: 1 2 3 4 5 6 7 8 9 10 11 12 13 14 15 16 17 18 19 20 21 22 23 24 25 26 27 28 29 30 31 32 33 34 35 36 37 38 39 40 41 42 43 44 45 46 47 48 49 50
000
SXUS52 KCHS 301512
OSOCHS

MARINE OBSERVATIONS
NATIONAL WEATHER SERVICE CHARLESTON SC
1100 AM EDT SAT MAY 30 2015

...DOWNTOWN CHARLESTON AND HARBOR...

CITY           SKY/WX    TMP DP  RH WIND       PRES   REMARKS
WATERFRONT PRK   N/A     78  70  76 E8        30.15S
FORT JOHNSON   NOT AVBL

...LAKE MOULTRIE...

CITY           SKY/WX    TMP DP  RH WIND       PRES   REMARKS
PINOPOLIS        N/A     82  68  61 E6        30.12

...LAKE AND SUPPLEMENTAL COASTAL OBSERVATIONS...

STATION/POSITION TIME  TEMP    WIND        PRES    WAVE   SWELL
                       AIR SEA DIR/SP/G            HT/PER HT/PER/DIR
                 (UTC) (F)     (DEG/KT/KT) (MB)    (FT/S) (FT/S/D)
FORT PULASKI     1400   77 80   90/ 10/ 12 1021.7F
SAPELO ISLAND    1400   80      70/  7     1021.0S
UPR LAKE MARION  NOT AVBL
WINYAH BAY       NOT AVBL
LAKE MURRAY      1400   74      90/  4/  6 1022.7S
ACE BASIN NERRS  NOT AVBL


...C-MAN AND BUOY OBSERVATIONS...

STATION/POSITION TIME  TEMP    WIND        PRES    WAVE   SWELL
                       AIR SEA DIR/SP/G            HT/PER HT/PER/DIR
                 (UTC) (F)     (DEG/KT/KT) (MB)    (FT/S) (FT/S/D)
BUOY 41004       1450   78 79   90/ 14/ 16 1021.3F   5/ 9   3/ 9
BUOY 41008       1450   75 78   80/  8/ 10 1021.4R   3/ 9   3/ 90/ 9
FOLLY BEACH CMAN 1500   79      80/  9/ 11 1022.2S
CAPERS NS BUOY   1408   77      80/ 10/ 12 1022.2F
FRIPP NS BUOY    1400   79      70/  6/  8 1021.2F
5E ST. MARYS GA  1421      80                N/A     3/ 8


STATION/POSITION TIME  TEMP    WIND        PRES    WAVE   SWELL
                       AIR SEA DIR/SP/G            HT/PER HT/PER/DIR
                 (UTC) (F)     (DEG/KT/KT) (MB)    (FT/S) (FT/S/D)
FRYING PAN BUOY  1450   77 75   80/  6/  6 1023.8R   4/ 9   3/130/ 9
BUOY 41025       1450   76 80  120/  6/ 10 1023.9S   3/ 9   3/ 90/ 9
CAPE LOOKOUT NC  1500   76      70/  7/  8 1023.4R
BUOY 41002       1450   75 75   80/ 12/ 12 1022.0R   6/ 8   5/ 90/ 8
BUOY 41010       1420   78 79   80/ 12/ 16 1019.7R
ST AUGUSTINE FL  1500   78 79   80/  8/  9 1021.1R

$$



USA.gov is the U.S. government's official web portal to all federal, state and local government web resources and services.